Location: Neu-Ulm
(48.3873°N, 10.0192°E)
Time: 03:05:13
(UTC+02:00)

Envisat - Visible Passes

Search period start: 22 April 2018 00:00
Search period end: 02 May 2018 00:00
Orbit: 764 x 766 km, 98.2° (Epoch: 21 April)

Date Brightness Start Highest point End Pass type
(mag) Time Alt. Az. Time Alt. Az. Time Alt. Az.
22 Apr 5.7 22:12:35 10° WSW 22:15:10 14° W 22:17:44 10° NW visible
23 Apr 5.0 21:33:40 10° SSW 21:38:00 28° W 21:42:22 10° NW visible
24 Apr 3.7 20:56:04 10° S 21:01:04 57° W 21:06:05 10° NNW visible
25 Apr 5.6 22:00:34 10° SW 22:03:51 17° W 22:07:11 10° NW visible
26 Apr 4.6 21:22:10 10° SSW 21:26:46 34° W 21:31:24 10° NNW visible
28 Apr 5.4 21:48:46 10° SW 21:52:35 21° W 21:56:25 10° NW visible
29 Apr 4.3 21:10:45 10° S 21:15:32 42° W 21:20:24 10° NNW visible
30 Apr 5.8 22:16:21 10° WSW 22:18:30 13° W 22:20:40 10° WNW visible
01 May 5.1 21:37:07 10° SSW 21:41:19 26° W 21:45:33 10° NW visible
